W0WC Weather Reports


Display with metric or nautical units.
time (UTC)temp
F
wind
direction
speed
MPH
gust
MPH
rain 1hr
in
rain 24hr
in
rain mn
in
humidity
%
barometer
mb
20260504081939 67 179 5.0 8.0 0.00 0.00 0.00 49 1009.7
20260504081436 67 235 5.0 9.0 0.00 0.00 0.00 49 1009.7
20260504080932 68 180 5.0 6.0 0.00 0.00 0.00 48 1009.7
20260504080429 68 229 6.0 8.0 0.00 0.00 0.00 48 1009.7
20260504070356 68 213 3.0 4.0 0.00 0.00 0.00 48 1010.3
20260504050744 69 206 6.0 8.0 0.00 0.00 0.00 48 1011.1
20260504050242 70 235 7.0 9.0 0.00 0.00 0.00 47 1010.9
20260504045739 69 281 6.0 8.0 0.00 0.00 0.00 47 1010.9
20260504045238 69 246 5.0 7.0 0.00 0.00 0.00 47 1010.9
20260504044737 70 217 3.0 4.0 0.00 0.00 0.00 47 1011.2
20260504044234 70 179 4.0 6.0 0.00 0.00 0.00 46 1011.0
20260504043731 70 164 5.0 6.0 0.00 0.00 0.00 46 1011.2
20260504043227 70 61 3.0 4.0 0.00 0.00 0.00 46 1011.1
20260504042726 70 233 9.0 13.0 0.00 0.00 0.00 45 1011.0
20260504042222 71 285 4.0 6.0 0.00 0.00 0.00 45 1011.1
20260504041718 71 228 5.0 8.0 0.00 0.00 0.00 45 1011.1
20260504041214 71 215 4.0 6.0 0.00 0.00 0.00 45 1011.3
20260504040710 71 158 4.0 4.0 0.00 0.00 0.00 44 1011.3
20260504040208 71 206 4.0 6.0 0.00 0.00 0.00 44 1011.2
20260504035704 71 205 6.0 9.0 0.00 0.00 0.00 44 1011.3
20260504035201 71 205 4.0 7.0 0.00 0.00 0.00 44 1011.2
20260504034659 71 136 3.0 4.0 0.00 0.00 0.00 44 1011.2
20260504034155 71 177 5.0 7.0 0.00 0.00 0.00 44 1011.2
20260504033653 71 221 2.0 3.0 0.00 0.00 0.00 44 1011.2
20260504033150 71 195 5.0 6.0 0.00 0.00 0.00 44 1011.4
20260504032647 71 192 9.0 11.0 0.00 0.00 0.00 45 1011.4
20260504032144 71 216 4.0 6.0 0.00 0.00 0.00 45 1011.1
20260504031641 71 216 4.0 4.0 0.00 0.00 0.00 46 1011.2
20260504031137 70 111 3.0 4.0 0.00 0.00 0.00 46 1011.3
20260504030634 70 106 3.0 3.0 0.00 0.00 0.00 46 1011.3
20260504030131 70 185 3.0 4.0 0.00 0.00 0.00 47 1011.4
20260504025628 70 151 4.0 4.0 0.00 0.00 0.00 47 1011.3
20260504025124 70 215 4.0 7.0 0.00 0.00 0.00 48 1011.2
20260504024622 70 221 5.0 7.0 0.00 0.00 0.00 49 1011.3
20260504024118 71 204 3.0 4.0 0.00 0.00 0.00 49 1011.3
20260504023615 71 201 5.0 6.0 0.00 0.00 0.00 49 1011.5
20260504023111 71 47 2.0 2.0 0.00 0.00 0.00 50 1011.2
20260504022607 70 199 2.0 3.0 0.00 0.00 0.00 50 1011.2
20260504022103 70 97 1.0 1.0 0.00 0.00 0.00 52 1011.3
20260504021601 71 143 2.0 3.0 0.00 0.00 0.00 51 1011.3
20260504021058 71 81 2.0 2.0 0.00 0.00 0.00 51 1011.2
20260504020555 71 51 2.0 3.0 0.00 0.00 0.00 51 1011.2
20260504020051 71 177 2.0 3.0 0.00 0.00 0.00 51 1011.2
20260504015548 71 65 2.0 2.0 0.00 0.00 0.00 51 1011.1
20260504015043 71 122 1.0 2.0 0.00 0.00 0.00 51 1011.2
20260504014540 71 108 2.0 2.0 0.00 0.00 0.00 51 1011.1
20260504014037 72 66 1.0 1.0 0.00 0.00 0.00 51 1011.1
20260504013535 72 37 1.0 1.0 0.00 0.00 0.00 51 1011.2
20260504013032 72 29 1.0 1.0 0.00 0.00 0.00 50 1011.1
20260504012529 73 100 2.0 3.0 0.00 0.00 0.00 49 1011.0
20260504012027 73 63 2.0 2.0 0.00 0.00 0.00 48 1011.1
20260504011523 74 54 1.0 2.0 0.00 0.00 0.00 47 1011.1
20260504011020 74 45 2.0 2.0 0.00 0.00 0.00 46 1011.0
20260504010515 74 173 1.0 2.0 0.00 0.00 0.00 45 1010.9
20260504010011 75 47 2.0 2.0 0.00 0.00 0.00 45 1011.1
20260504005508 75 46 1.0 2.0 0.00 0.00 0.00 45 1011.0
20260504005006 75 179 2.0 3.0 0.00 0.00 0.00 44 1011.1
20260504004503 75 66 1.0 2.0 0.00 0.00 0.00 45 1011.1
20260504004000 76 210 0.0 1.0 0.00 0.00 0.00 44 1011.1
20260504003456 76 219 3.0 3.0 0.00 0.00 0.00 44 1011.1
20260504002953 76 84 2.0 2.0 0.00 0.00 0.00 44 1011.2
20260504002450 76 78 2.0 3.0 0.00 0.00 0.00 43 1011.2
20260504001948 77 161 4.0 4.0 0.00 0.00 0.00 43 1011.3
20260504001445 77 229 2.0 2.0 0.00 0.00 0.00 43 1011.2
20260504000942 77 155 2.0 3.0 0.00 0.00 0.00 42 1011.3
20260504000439 77 135 2.0 2.0 0.00 0.00 0.00 42 1011.5
20260503235936 77 172 3.0 4.0 0.00 0.00 0.00 41 1011.3
20260503235433 77 169 4.0 6.0 0.00 0.00 0.00 41 1011.5
20260503234931 78 200 5.0 6.0 0.00 0.00 0.00 40 1011.5
20260503234428 78 145 7.0 11.0 0.00 0.00 0.00 40 1011.6
20260503233926 78 222 5.0 8.0 0.00 0.00 0.00 40 1011.7
20260503233422 78 76 4.0 6.0 0.00 0.00 0.00 40 1011.7
20260503232919 79 237 6.0 7.0 0.00 0.00 0.00 40 1011.8
20260503232416 79 217 4.0 4.0 0.00 0.00 0.00 39 1011.6
20260503231914 79 192 4.0 6.0 0.00 0.00 0.00 39 1011.8
20260503231411 80 165 6.0 8.0 0.00 0.00 0.00 38 1011.8
20260503230907 80 168 4.0 7.0 0.00 0.00 0.00 38 1011.9
20260503230404 80 250 5.0 7.0 0.00 0.00 0.00 38 1011.8
20260503225901 79 330 1.0 2.0 0.00 0.00 0.00 38 1012.0
20260503225357 80 182 7.0 9.0 0.00 0.00 0.00 37 1011.9
20260503224854 80 217 8.0 9.0 0.00 0.00 0.00 37 1012.1
20260503224351 80 220 8.0 10.0 0.00 0.00 0.00 36 1011.9
20260503223849 80 207 3.0 4.0 0.00 0.00 0.00 37 1012.1
20260503223347 80 323 2.0 3.0 0.00 0.00 0.00 37 1012.0
20260503222842 80 232 4.0 7.0 0.00 0.00 0.00 37 1012.0
20260503222340 80 203 8.0 13.0 0.00 0.00 0.00 36 1012.1
20260503221838 80 146 2.0 2.0 0.00 0.00 0.00 37 1012.2
20260503221337 80 31 2.0 3.0 0.00 0.00 0.00 35 1012.2
20260503220832 80 176 2.0 3.0 0.00 0.00 0.00 35 1012.3
20260503220329 81 218 9.0 11.0 0.00 0.00 0.00 34 1012.3
20260503215826 82 27 2.0 3.0 0.00 0.00 0.00 36 1012.4
20260503215323 82 216 9.0 16.0 0.00 0.00 0.00 34 1012.5
20260503214821 82 13 3.0 3.0 0.00 0.00 0.00 34 1012.5
20260503214318 82 241 5.0 7.0 0.00 0.00 0.00 34 1012.5
20260503213815 82 221 7.0 9.0 0.00 0.00 0.00 34 1012.5
20260503213313 82 170 2.0 3.0 0.00 0.00 0.00 34 1012.7
20260503212810 81 228 7.0 10.0 0.00 0.00 0.00 34 1012.9
20260503212308 81 230 2.0 4.0 0.00 0.00 0.00 34 1013.0
20260503211805 81 233 4.0 6.0 0.00 0.00 0.00 34 1012.8
20260503211301 82 310 10.0 15.0 0.00 0.00 0.00 33 1013.0
20260503210801 82 263 5.0 7.0 0.00 0.00 0.00 35 1013.2
20260503210259 82 280 7.0 11.0 0.00 0.00 0.00 34 1013.2
20260503205754 82 327 3.0 3.0 0.00 0.00 0.00 37 1013.6
20260503205251 82 228 4.0 6.0 0.00 0.00 0.00 36 1013.5
20260503204747 82 204 3.0 4.0 0.00 0.00 0.00 35 1013.5
20260503204245 81 279 3.0 4.0 0.00 0.00 0.00 37 1013.5
20260503203742 81 212 7.0 14.0 0.00 0.00 0.00 37 1013.5
20260503203239 81 358 4.0 7.0 0.00 0.00 0.00 36 1013.6
20260503202736 82 211 6.0 8.0 0.00 0.00 0.00 34 1013.8
20260503202234 81 225 4.0 7.0 0.00 0.00 0.00 36 1013.8
20260503201732 81 193 5.0 7.0 0.00 0.00 0.00 37 1014.0
20260503201229 80 270 2.0 4.0 0.00 0.00 0.00 35 1013.9
20260503200726 80 219 8.0 9.0 0.00 0.00 0.00 37 1014.0
20260503200222 80 238 9.0 11.0 0.00 0.00 0.00 36 1014.2
20260503195719 81 189 4.0 6.0 0.00 0.00 0.00 36 1014.2
20260503195216 81 14 2.0 3.0 0.00 0.00 0.00 37 1014.2
20260503194713 80 281 2.0 3.0 0.00 0.00 0.00 38 1014.5
20260503194209 80 3 2.0 4.0 0.00 0.00 0.00 39 1014.2
20260503193705 81 234 9.0 11.0 0.00 0.00 0.00 35 1014.5
20260503193201 80 275 4.0 4.0 0.00 0.00 0.00 38 1014.8
20260503192657 79 220 12.0 14.0 0.00 0.00 0.00 37 1014.6
20260503192152 80 201 6.0 8.0 0.00 0.00 0.00 37 1014.7
20260503191649 80 234 6.0 7.0 0.00 0.00 0.00 37 1014.9
20260503191147 79 209 3.0 7.0 0.00 0.00 0.00 38 1014.7
20260503190643 79 202 5.0 8.0 0.00 0.00 0.00 37 1015.0
20260503190140 79 201 5.0 8.0 0.00 0.00 0.00 37 1015.0
20260503185637 79 239 3.0 6.0 0.00 0.00 0.00 39 1015.1
20260503185132 79 320 5.0 7.0 0.00 0.00 0.00 38 1015.0
20260503184627 78 292 4.0 4.0 0.00 0.00 0.00 38 1015.2
20260503184124 79 208 5.0 7.0 0.00 0.00 0.00 38 1015.3
20260503183620 79 220 4.0 4.0 0.00 0.00 0.00 38 1015.4
20260503183118 78 295 2.0 3.0 0.00 0.00 0.00 41 1015.2
20260503182616 77 218 6.0 11.0 0.00 0.00 0.00 38 1015.3
20260503182114 78 217 8.0 10.0 0.00 0.00 0.00 38 1015.6
20260503181610 78 236 4.0 8.0 0.00 0.00 0.00 38 1015.7
20260503181107 78 86 3.0 4.0 0.00 0.00 0.00 39 1015.6
20260503180605 77 218 6.0 9.0 0.00 0.00 0.00 38 1015.7
20260503175559 76 200 3.0 4.0 0.00 0.00 0.00 40 1015.9
20260503175056 77 208 7.0 8.0 0.00 0.00 0.00 39 1016.0
20260503174553 76 226 3.0 4.0 0.00 0.00 0.00 40 1015.9
20260503174049 76 212 5.0 8.0 0.00 0.00 0.00 38 1016.1
20260503173545 76 211 4.0 6.0 0.00 0.00 0.00 39 1016.1
20260503173041 74 303 4.0 7.0 0.00 0.00 0.00 39 1016.2
20260503172539 75 223 13.0 16.0 0.00 0.00 0.00 39 1016.3
20260503172036 74 239 4.0 4.0 0.00 0.00 0.00 42 1016.5
20260503171532 74 235 7.0 9.0 0.00 0.00 0.00 42 1016.4
20260503171030 74 221 6.0 10.0 0.00 0.00 0.00 40 1016.6
20260503170526 74 237 4.0 7.0 0.00 0.00 0.00 41 1016.7
20260503150918 67 174 4.0 6.0 0.00 0.00 0.00 46 1017.5
20260503150415 67 103 5.0 7.0 0.00 0.00 0.00 46 1017.6
20260503131308 57 178 4.0 4.0 0.00 0.00 0.00 51 1018.4
20260503130805 57 210 2.0 3.0 0.00 0.00 0.00 52 1018.5
20260503130302 56 175 6.0 9.0 0.00 0.00 0.00 52 1018.5
20260503110656 47 50 2.0 2.0 0.00 0.00 0.00 65 1018.4
20260503110153 47 203 2.0 3.0 0.00 0.00 0.00 64 1018.3
20260503100120 48 186 3.0 4.0 0.00 0.00 0.00 64 1018.5